614  
ASUS44 KMEG 170310  
RWRMEG  
MEMPHIS CWA HOURLY WEATHER ROUNDUP  
NATIONAL WEATHER SERVICE MEMPHIS TN  
1000 PM CDT SAT OCT 16 2021  
   
..WEST TENNESSEE
 
 
 
CITY SKY/WX TMP DP RH WIND PRES REMARKS
 
MEMPHIS INTL CLEAR 55 44 66 W3 30.24R  
NWS MEMPHIS N/A 49 N/A N/A MISG N/A  
JACKSON CLEAR 46 43 89 CALM 30.23R  
COVINGTON CLEAR 48 45 87 CALM 30.24R  
SOMERVILLE CLEAR 48 45 87 CALM 30.22S  
LEXINGTON CLEAR 46 46 100 CALM 30.21R  
DYERSBURG CLEAR 50 47 89 CALM 30.25R  
UNION CITY CLEAR 50 45 81 CALM 30.22R  
PARIS CLEAR 48 41 76 CALM 30.22R  
 
   
..EASTERN ARKANSAS
 
 
 
CITY SKY/WX TMP DP RH WIND PRES REMARKS
 
JONESBORO CLEAR 51 40 65 NW5 30.26R  
WEST MEMPHIS CLEAR 49 43 80 CALM 30.24R  
BATESVILLE CLEAR 52 40 63 NW3 30.28R  
NEWPORT CLEAR 53 41 63 W6 30.27R  
WALNUT RIDGE CLEAR 54 39 57 NW6 30.27R  
BLYTHEVILLE CLEAR 50 41 71 NW5 30.24R  
SEARCY CLEAR 47 42 83 CALM 30.28R  
STUTTGART CLEAR 54 43 66 NW5 30.28R  
PINE BLUFF CLEAR 55 45 68 CALM 30.27R  
MONTICELLO CLEAR 50 45 83 CALM 30.26S  
 
   
..NORTH MISSISSIPPI
 
 
 
CITY SKY/WX TMP DP RH WIND PRES REMARKS
 
TUPELO CLEAR 55 43 63 NW3 30.23R  
OXFORD CLEAR 46 46 100 CALM 30.26R  
BATESVILLE CLEAR 48 48 100 CALM 30.25R  
TUNICA CLEAR 54 46 76 CALM 30.27R  
CLARKSDALE CLEAR 52 48 87 MISG 30.26R  
CORINTH CLEAR 50 46 87 CALM 30.23R  
GREENWOOD CLEAR 51 47 86 CALM 30.25R  
COLUMBUS CLEAR 48 45 89 CALM 30.21R  
GOLDEN TRIANGL CLEAR 54 46 74 NW3 30.24R  
 
   
..SOUTHEAST MISSOURI
 
 
 
CITY SKY/WX TMP DP RH WIND PRES REMARKS
 
KENNETT CLEAR 52 43 71 W3 30.24R  
MALDEN CLEAR 54 41 62 NW3 30.25S  
WEST PLAINS CLEAR 48 38 68 CALM 30.28R  
POPLAR BLUFF CLEAR 45 43 93 CALM 30.25R  
CAPE GIRARDEAU CLEAR 47 41 80 W3 30.24R  
 
   
..NORTHWEST ALABAMA
 
 
 
CITY SKY/WX TMP DP RH WIND PRES REMARKS
 
MUSCLE SHOALS CLEAR 55 44 66 NW5 30.21R  
 
   
..MIDDLE TENNESSEE
 
 
 
CITY SKY/WX TMP DP RH WIND PRES REMARKS
 
NASHVILLE CLEAR 53 41 63 VRB5 30.21R  
CLARKSVILLE CLEAR 50 41 71 NW5 30.21R  
DICKSON PTCLDY 48 43 81 CALM 30.20R  
COLUMBIA CLEAR 48 48 100 CALM 30.19S  
LAWRENCEBURG MOCLDY 48 43 81 CALM 30.20S  
LEWISBURG CLEAR 43 43 100 CALM 30.20R  
 
   
..WESTERN KENTUCKY
 
 
 
CITY SKY/WX TMP DP RH WIND PRES REMARKS
 
PADUCAH CLEAR 47 42 83 CALM 30.22R  
FORT CAMPBELL CLEAR 53 38 57 NW5 30.20R  
 
   
..CENTRAL ARKANSAS
 
 
 
CITY SKY/WX TMP DP RH WIND PRES REMARKS
 
LITTLE ROCK CLEAR 52 43 71 CALM 30.28R  
 
SKY/WX REPORTED AS FAIR MEANS FEW OR NO CLOUDS BELOW  
12 THOUSAND FEET.  
 
 
 
CLICK HERE TO GO TO PREVIOUS BULLETINS.

The Nexlab TN Page
The Nexlab MS Page
The Nexlab AR Page Main Text Page